Location: Bergfeld
(52.0500°N, 11.7833°E)
Time: 22:29:13
(UTC+00:00)

Sich 1 - Pass Details

Date: 17 February 2020
Orbit: 595 x 624 km, 82.5° (Epoch: 05 April)

Event Time Altitude Azimuth Distance (km) Brightness Sun altitude
Rises 04:53:38 0° 350° (N) 2,853 6.3 -14.7°
Reaches altitude 10° 04:55:51 10° 351° (N) 1,947 5.5 -14.3°
Maximum altitude 05:00:10 80° 78° (ENE) 615 3.1 -13.7°
Drops below altitude 10° 05:04:27 10° 167° (SSE) 1,940 5.8 -13.0°
Sets 05:06:40 0° 168° (SSE) 2,842 6.7 -12.7°
